Tracking 19242 objects as of 20-Sep-2018
HD Live streaming from Space Station
objects crossing your sky now

CZ-4B DEB

Track CZ-4B DEB now!
10-day predictions


NORAD ID: 37580
Int'l Code: 1999-025EKD
Perigee: 789.6 km
Apogee: 976.8 km
Inclination: 99.1 °
Period: 102.5 minutes
Semi major axis: 7254 km
RCS: 0.0014 m2 (small)
Launch date: May 10, 1999
Source: People's Republic of China (PRC)
Launch site: Taiyaun Space Center, China (TSC)

Note: This is SATELLITE DEBRIS
aabbcc
Your satellite tracking list
Your tracking list is empty




NASA's NSSDC Master Catalog

Two Line Element Set (TLE):
1 37580U 99025EKD 18262.53412890 +.00000139 +00000-0 +10609-3 0  9991
2 37580 099.1316 282.8208 0129042 028.1273 127.2357 14.05140845780324
Source of the keplerian elements: AFSPC